Time,TemperatureF,DewpointF,PressureIn,WindDirection,WindDirectionDegrees,WindSpeedMPH,WindSpeedGustMPH,Humidity,HourlyPrecipIn,Conditions,Clouds,dailyrainin,SoftwareType,DateUTC
2013-02-23 00:03:00,29.2,24.0,29.94,SW,232,9.0,-999.0,82,-99.99,,,0.00,weatherlink.com 1.10,2013-02-23 05:03:00,
2013-02-23 00:18:00,29.0,25.0,29.93,SW,233,9.0,-999.0,83,-99.99,,,0.00,weatherlink.com 1.10,2013-02-23 05:18:00,
2013-02-23 00:33:00,28.9,25.0,29.93,SW,233,0.0,-999.0,84,-99.99,,,0.00,weatherlink.com 1.10,2013-02-23 05:33:00,
2013-02-23 00:48:00,28.7,24.0,29.93,SW,233,6.0,-999.0,83,-99.99,,,0.00,weatherlink.com 1.10,2013-02-23 05:48:00,
2013-02-23 01:04:00,28.5,24.0,29.93,SW,232,0.0,-999.0,84,-99.99,,,0.00,weatherlink.com 1.10,2013-02-23 06:04:00,
2013-02-23 01:19:00,28.4,24.0,29.93,SW,233,10.0,-999.0,84,-99.99,,,0.00,weatherlink.com 1.10,2013-02-23 06:19:00,
2013-02-23 01:34:00,28.3,24.0,29.93,SW,233,0.0,-999.0,84,-99.99,,,0.00,weatherlink.com 1.10,2013-02-23 06:34:00,
2013-02-23 01:49:00,28.1,24.0,29.93,SW,233,1.0,-999.0,85,-99.99,,,0.00,weatherlink.com 1.10,2013-02-23 06:49:00,
2013-02-23 02:04:00,27.9,24.0,29.93,SW,233,0.0,-999.0,85,-99.99,,,0.00,weatherlink.com 1.10,2013-02-23 07:04:00,
2013-02-23 02:19:00,27.8,24.0,29.93,SW,233,8.0,-999.0,85,-99.99,,,0.00,weatherlink.com 1.10,2013-02-23 07:19:00,
2013-02-23 02:34:00,27.9,24.0,29.93,SW,233,1.0,-999.0,85,-99.99,,,0.00,weatherlink.com 1.10,2013-02-23 07:34:00,
2013-02-23 02:49:00,27.6,24.0,29.93,SW,233,0.0,-999.0,86,-99.99,,,0.00,weatherlink.com 1.10,2013-02-23 07:49:00,
2013-02-23 03:04:00,27.6,24.0,29.93,SW,233,10.0,-999.0,86,-99.99,,,0.00,weatherlink.com 1.10,2013-02-23 08:04:00,
2013-02-23 03:19:00,27.5,24.0,29.92,SW,232,0.0,-999.0,87,-99.99,,,0.00,weatherlink.com 1.10,2013-02-23 08:19:00,
2013-02-23 03:34:00,27.3,24.0,29.92,SW,234,10.0,-999.0,87,-99.99,,,0.00,weatherlink.com 1.10,2013-02-23 08:34:00,
2013-02-23 03:49:00,27.3,24.0,29.92,SW,233,13.0,-999.0,87,-99.99,,,0.00,weatherlink.com 1.10,2013-02-23 08:49:00,
2013-02-23 04:05:00,27.2,24.0,29.92,SW,233,7.0,-999.0,87,-99.99,,,0.00,weatherlink.com 1.10,2013-02-23 09:05:00,
2013-02-23 04:20:00,27.1,24.0,29.92,SW,233,3.0,-999.0,87,-99.99,,,0.00,weatherlink.com 1.10,2013-02-23 09:20:00,
2013-02-23 04:35:00,27.0,24.0,29.92,SW,233,4.0,-999.0,87,-99.99,,,0.00,weatherlink.com 1.10,2013-02-23 09:35:00,
2013-02-23 04:50:00,26.9,24.0,29.92,SW,233,9.0,-999.0,88,-99.99,,,0.00,weatherlink.com 1.10,2013-02-23 09:50:00,
2013-02-23 05:05:00,26.8,24.0,29.92,SW,232,5.0,-999.0,87,-99.99,,,0.00,weatherlink.com 1.10,2013-02-23 10:05:00,
2013-02-23 05:20:00,26.8,24.0,29.92,SW,233,6.0,-999.0,88,-99.99,,,0.00,weatherlink.com 1.10,2013-02-23 10:20:00,
2013-02-23 05:35:00,26.7,23.0,29.92,SW,232,2.0,-999.0,87,-99.99,,,0.00,weatherlink.com 1.10,2013-02-23 10:35:00,
2013-02-23 05:50:00,26.6,23.0,29.93,SW,233,0.0,-999.0,87,-99.99,,,0.00,weatherlink.com 1.10,2013-02-23 10:50:00,
2013-02-23 06:05:00,26.6,23.0,29.93,SW,233,8.0,-999.0,87,-99.99,,,0.00,weatherlink.com 1.10,2013-02-23 11:05:00,
2013-02-23 06:20:00,26.5,23.0,29.93,SW,232,10.0,-999.0,87,-99.99,,,0.00,weatherlink.com 1.10,2013-02-23 11:20:00,
2013-02-23 06:36:00,26.3,23.0,29.94,SW,232,13.0,-999.0,86,-99.99,,,0.00,weatherlink.com 1.10,2013-02-23 11:36:00,
2013-02-23 06:50:00,26.2,23.0,29.94,SW,233,9.0,-999.0,86,-99.99,,,0.00,weatherlink.com 1.10,2013-02-23 11:50:00,
2013-02-23 07:06:00,26.1,23.0,29.94,SW,234,9.0,-999.0,86,-99.99,,,0.00,weatherlink.com 1.10,2013-02-23 12:06:00,
2013-02-23 07:21:00,26.0,22.0,29.94,SW,233,6.0,-999.0,86,-99.99,,,0.00,weatherlink.com 1.10,2013-02-23 12:21:00,
2013-02-23 07:36:00,25.9,24.0,29.95,SW,233,11.0,-999.0,92,-99.99,,,0.00,weatherlink.com 1.10,2013-02-23 12:36:00,
2013-02-23 07:51:00,25.8,22.0,29.95,SW,232,0.0,-999.0,85,-99.99,,,0.00,weatherlink.com 1.10,2013-02-23 12:51:00,
2013-02-23 08:06:00,25.9,22.0,29.96,SW,233,1.0,-999.0,85,-99.99,,,0.00,weatherlink.com 1.10,2013-02-23 13:06:00,
2013-02-23 08:21:00,25.8,22.0,29.96,SW,232,0.0,-999.0,84,-99.99,,,0.00,weatherlink.com 1.10,2013-02-23 13:21:00,
2013-02-23 08:36:00,25.7,21.0,29.95,SW,234,7.0,-999.0,83,-99.99,,,0.00,weatherlink.com 1.10,2013-02-23 13:36:00,
2013-02-23 08:51:00,25.7,21.0,29.96,SW,234,1.0,-999.0,83,-99.99,,,0.00,weatherlink.com 1.10,2013-02-23 13:51:00,
2013-02-23 09:06:00,25.7,21.0,29.95,SW,234,0.0,-999.0,82,-99.99,,,0.00,weatherlink.com 1.10,2013-02-23 14:06:00,
2013-02-23 09:21:00,25.7,21.0,29.95,SW,234,0.0,-999.0,82,-99.99,,,0.00,weatherlink.com 1.10,2013-02-23 14:21:00,
2013-02-23 09:36:00,26.0,21.0,29.95,SW,233,9.0,-999.0,81,-99.99,,,0.00,weatherlink.com 1.10,2013-02-23 14:36:00,
2013-02-23 09:51:00,26.0,20.0,29.95,SW,233,6.0,-999.0,79,-99.99,,,0.00,weatherlink.com 1.10,2013-02-23 14:51:00,
2013-02-23 10:07:00,26.1,20.0,29.94,SW,234,10.0,-999.0,77,-99.99,,,0.00,weatherlink.com 1.10,2013-02-23 15:07:00,
2013-02-23 10:22:00,26.5,20.0,29.95,SW,233,13.0,-999.0,76,-99.99,,,0.00,weatherlink.com 1.10,2013-02-23 15:22:00,
2013-02-23 10:37:00,26.4,20.0,29.95,SW,232,2.0,-999.0,76,-99.99,,,0.00,weatherlink.com 1.10,2013-02-23 15:37:00,
2013-02-23 10:52:00,26.5,19.0,29.95,SW,232,12.0,-999.0,73,-99.99,,,0.00,weatherlink.com 1.10,2013-02-23 15:52:00,
2013-02-23 11:07:00,26.7,19.0,29.95,SW,232,7.0,-999.0,72,-99.99,,,0.00,weatherlink.com 1.10,2013-02-23 16:07:00,
2013-02-23 11:22:00,27.3,20.0,29.95,SW,234,7.0,-999.0,73,-99.99,,,0.00,weatherlink.com 1.10,2013-02-23 16:22:00,
2013-02-23 11:37:00,27.0,18.0,29.95,SW,233,13.0,-999.0,70,-99.99,,,0.00,weatherlink.com 1.10,2013-02-23 16:37:00,
2013-02-23 11:52:00,27.8,20.0,29.95,SW,232,0.0,-999.0,71,-99.99,,,0.00,weatherlink.com 1.10,2013-02-23 16:52:00,
2013-02-23 12:07:00,28.8,19.0,29.95,SW,232,7.0,-999.0,68,-99.99,,,0.00,weatherlink.com 1.10,2013-02-23 17:07:00,
2013-02-23 12:22:00,29.2,20.0,29.95,SW,227,8.0,-999.0,68,-99.99,,,0.00,weatherlink.com 1.10,2013-02-23 17:22:00,
2013-02-23 12:37:00,29.3,20.0,29.94,WSW,238,3.0,-999.0,67,-99.99,,,0.00,weatherlink.com 1.10,2013-02-23 17:37:00,
2013-02-23 12:52:00,29.1,20.0,29.93,WSW,239,1.0,-999.0,68,-99.99,,,0.00,weatherlink.com 1.10,2013-02-23 17:52:00,
2013-02-23 13:08:00,29.6,19.0,29.93,WSW,246,1.0,-999.0,66,-99.99,,,0.00,weatherlink.com 1.10,2013-02-23 18:08:00,
2013-02-23 13:23:00,29.1,20.0,29.93,WSW,248,3.0,-999.0,68,-99.99,,,0.00,weatherlink.com 1.10,2013-02-23 18:23:00,
2013-02-23 13:38:00,29.6,20.0,29.92,West,259,1.0,-999.0,67,-99.99,,,0.00,weatherlink.com 1.10,2013-02-23 18:38:00,
2013-02-23 13:53:00,29.5,20.0,29.92,West,259,10.0,-999.0,67,-99.99,,,0.00,weatherlink.com 1.10,2013-02-23 18:53:00,
2013-02-23 14:08:00,29.9,20.0,29.91,West,260,8.0,-999.0,68,-99.99,,,0.00,weatherlink.com 1.10,2013-02-23 19:08:00,
2013-02-23 14:23:00,29.6,20.0,29.91,West,260,1.0,-999.0,67,-99.99,,,0.00,weatherlink.com 1.10,2013-02-23 19:23:00,
2013-02-23 14:38:00,30.2,21.0,29.91,West,261,0.0,-999.0,69,-99.99,,,0.00,weatherlink.com 1.10,2013-02-23 19:38:00,
2013-02-23 14:53:00,30.3,21.0,29.91,West,259,2.0,-999.0,69,-99.99,,,0.00,weatherlink.com 1.10,2013-02-23 19:53:00,
2013-02-23 15:08:00,29.9,22.0,29.91,WSW,257,1.0,-999.0,71,-99.99,,,0.00,weatherlink.com 1.10,2013-02-23 20:08:00,
2013-02-23 15:23:00,29.9,21.0,29.91,WSW,258,0.0,-999.0,70,-99.99,,,0.00,weatherlink.com 1.10,2013-02-23 20:23:00,
2013-02-23 15:38:00,29.4,21.0,29.91,WSW,257,8.0,-999.0,72,-99.99,,,0.00,weatherlink.com 1.10,2013-02-23 20:38:00,
2013-02-23 15:53:00,28.7,21.0,29.91,WSW,258,12.0,-999.0,73,-99.99,,,0.00,weatherlink.com 1.10,2013-02-23 20:53:00,
2013-02-23 16:08:00,28.5,21.0,29.92,WSW,257,1.0,-999.0,74,-99.99,,,0.00,weatherlink.com 1.10,2013-02-23 21:08:00,
2013-02-23 16:24:00,28.4,21.0,29.92,WSW,258,4.0,-999.0,75,-99.99,,,0.00,weatherlink.com 1.10,2013-02-23 21:24:00,
2013-02-23 16:39:00,28.1,21.0,29.92,West,259,7.0,-999.0,74,-99.99,,,0.00,weatherlink.com 1.10,2013-02-23 21:39:00,
2013-02-23 16:54:00,28.0,21.0,29.92,WSW,258,10.0,-999.0,75,-99.99,,,0.00,weatherlink.com 1.10,2013-02-23 21:54:00,
2013-02-23 17:09:00,27.8,21.0,29.92,West,259,8.0,-999.0,76,-99.99,,,0.00,weatherlink.com 1.10,2013-02-23 22:09:00,
2013-02-23 17:24:00,27.5,21.0,29.92,WSW,258,7.0,-999.0,76,-99.99,,,0.00,weatherlink.com 1.10,2013-02-23 22:24:00,
2013-02-23 17:39:00,27.4,21.0,29.93,WSW,258,1.0,-999.0,76,-99.99,,,0.00,weatherlink.com 1.10,2013-02-23 22:39:00,
2013-02-23 17:54:00,27.1,21.0,29.93,West,259,1.0,-999.0,77,-99.99,,,0.00,weatherlink.com 1.10,2013-02-23 22:54:00,
2013-02-23 18:09:00,27.0,21.0,29.93,WSW,257,1.0,-999.0,78,-99.99,,,0.00,weatherlink.com 1.10,2013-02-23 23:09:00,
2013-02-23 18:24:00,26.9,21.0,29.94,WSW,258,8.0,-999.0,78,-99.99,,,0.00,weatherlink.com 1.10,2013-02-23 23:24:00,
2013-02-23 18:39:00,26.7,21.0,29.94,WSW,258,11.0,-999.0,78,-99.99,,,0.00,weatherlink.com 1.10,2013-02-23 23:39:00,
2013-02-23 18:54:00,26.5,21.0,29.94,WSW,258,7.0,-999.0,79,-99.99,,,0.00,weatherlink.com 1.10,2013-02-23 23:54:00,
2013-02-23 19:09:00,26.5,21.0,29.95,WSW,258,5.0,-999.0,79,-99.99,,,0.00,weatherlink.com 1.10,2013-02-24 00:09:00,
2013-02-23 19:24:00,26.3,21.0,29.95,WSW,258,8.0,-999.0,79,-99.99,,,0.00,weatherlink.com 1.10,2013-02-24 00:24:00,
2013-02-23 19:39:00,26.1,20.0,29.96,WSW,258,7.0,-999.0,79,-99.99,,,0.00,weatherlink.com 1.10,2013-02-24 00:39:00,
2013-02-23 19:55:00,25.9,21.0,29.96,WSW,258,11.0,-999.0,80,-99.99,,,0.00,weatherlink.com 1.10,2013-02-24 00:55:00,
2013-02-23 20:10:00,25.7,20.0,29.96,WSW,258,9.0,-999.0,79,-99.99,,,0.00,weatherlink.com 1.10,2013-02-24 01:10:00,
2013-02-23 20:25:00,25.6,20.0,29.96,WSW,258,8.0,-999.0,80,-99.99,,,0.00,weatherlink.com 1.10,2013-02-24 01:25:00,
2013-02-23 20:40:00,25.6,20.0,29.97,West,259,5.0,-999.0,80,-99.99,,,0.00,weatherlink.com 1.10,2013-02-24 01:40:00,
2013-02-23 20:55:00,25.6,20.0,29.97,WSW,258,2.0,-999.0,80,-99.99,,,0.00,weatherlink.com 1.10,2013-02-24 01:55:00,
2013-02-23 21:10:00,25.5,20.0,29.96,WSW,258,9.0,-999.0,81,-99.99,,,0.00,weatherlink.com 1.10,2013-02-24 02:10:00,
2013-02-23 21:25:00,25.4,20.0,29.96,WSW,258,9.0,-999.0,80,-99.99,,,0.00,weatherlink.com 1.10,2013-02-24 02:25:00,
2013-02-23 21:40:00,25.2,20.0,29.96,WSW,258,6.0,-999.0,80,-99.99,,,0.00,weatherlink.com 1.10,2013-02-24 02:40:00,
2013-02-23 21:55:00,25.3,20.0,29.96,WSW,258,9.0,-999.0,80,-99.99,,,0.00,weatherlink.com 1.10,2013-02-24 02:55:00,
2013-02-23 22:10:00,25.3,20.0,29.96,WSW,258,3.0,-999.0,80,-99.99,,,0.00,weatherlink.com 1.10,2013-02-24 03:10:00,
2013-02-23 22:25:00,25.3,20.0,29.96,WSW,258,9.0,-999.0,80,-99.99,,,0.00,weatherlink.com 1.10,2013-02-24 03:25:00,
2013-02-23 22:40:00,25.4,20.0,29.96,WSW,258,0.0,-999.0,80,-99.99,,,0.00,weatherlink.com 1.10,2013-02-24 03:40:00,
2013-02-23 22:55:00,25.3,20.0,29.95,WSW,258,1.0,-999.0,80,-99.99,,,0.00,weatherlink.com 1.10,2013-02-24 03:55:00,
2013-02-23 23:11:00,25.4,20.0,29.95,WSW,258,0.0,-999.0,80,-99.99,,,0.00,weatherlink.com 1.10,2013-02-24 04:11:00,
2013-02-23 23:26:00,25.4,20.0,29.95,West,259,1.0,-999.0,80,-99.99,,,0.00,weatherlink.com 1.10,2013-02-24 04:26:00,
2013-02-23 23:41:00,25.4,20.0,29.95,WSW,258,2.0,-999.0,80,-99.99,,,0.00,weatherlink.com 1.10,2013-02-24 04:41:00,
2013-02-23 23:56:00,25.5,20.0,29.95,WSW,257,2.0,-999.0,80,-99.99,,,0.00,weatherlink.com 1.10,2013-02-24 04:56:00,